SWR2647 VIDP-LSZH

Flight info

Callsign SWR2647
Flight time N/A
Altitude 34000
Route SURAM7E SURAM G333 MERUN L750 RANAH A846 ABDAN A909 KEKAL/N0479F360 A909 RODAR M11 ERLEV T923 SUBUT T916 MATAL M11 REBLO UM11 CRM UL746 ODERO L746 LUGEB DCT NERDI DCT MOPUG/N0478F380 DCT SUNIS DCT ERKIR DCT KPT L856 NEGRA NEGRA2A
Aircraft A339/H-SADE1E2E3GHIJ3J5M1P2RWXY/LB2D1

Departure

Time 2026-04-29 07:27
Airport Indira Gandhi International Airport (VIDP)

Arrival

Time N/A
Airport Zürich Airport (LSZH)
Time Latitude Longitude Altitude Speed Heading
2026-04-29 07:11 28.56047 77.08849 787 ft 0 kts 191°
2026-04-29 07:18 28.56059 77.08852 787 ft 2 kts 191°
2026-04-29 07:18 28.56074 77.08855 787 ft 2 kts 191°
2026-04-29 07:19 28.56083 77.08858 787 ft 2 kts 189°
2026-04-29 07:19 28.56098 77.08858 787 ft 2 kts 166°
2026-04-29 07:19 28.56112 77.08852 787 ft 2 kts 149°
2026-04-29 07:19 28.56124 77.08842 787 ft 2 kts 131°
2026-04-29 07:20 28.56133 77.08828 787 ft 2 kts 113°
2026-04-29 07:20 28.56137 77.08812 787 ft 2 kts 95°
2026-04-29 07:20 28.56136 77.08795 787 ft 2 kts 77°
2026-04-29 07:20 28.56133 77.08783 787 ft 0 kts 65°
2026-04-29 07:21 28.56132 77.08779 787 ft 0 kts 64°
2026-04-29 07:22 28.56132 77.08780 787 ft 0 kts 64°
2026-04-29 07:22 28.56135 77.08788 787 ft 1 kts 64°
2026-04-29 07:22 28.56145 77.08814 787 ft 7 kts 68°
2026-04-29 07:23 28.56149 77.08897 787 ft 11 kts 100°
2026-04-29 07:23 28.56136 77.08992 787 ft 13 kts 91°
2026-04-29 07:23 28.56202 77.09061 787 ft 16 kts 354°
2026-04-29 07:23 28.56320 77.09077 787 ft 20 kts 13°
2026-04-29 07:24 28.56458 77.09084 787 ft 19 kts 353°
2026-04-29 07:24 28.56586 77.09058 787 ft 18 kts 348°
2026-04-29 07:24 28.56708 77.09028 787 ft 17 kts 348°
2026-04-29 07:24 28.56830 77.09002 787 ft 17 kts 349°
2026-04-29 07:25 28.56946 77.08973 787 ft 16 kts 347°
2026-04-29 07:25 28.57022 77.08958 787 ft 9 kts
2026-04-29 07:25 28.57054 77.08994 787 ft 6 kts 78°
2026-04-29 07:25 28.57054 77.09050 787 ft 7 kts 93°
2026-04-29 07:26 28.57048 77.09234 787 ft 50 kts 91°
2026-04-29 07:26 28.57040 77.09869 788 ft 109 kts 92°
2026-04-29 07:26 28.57020 77.10957 788 ft 161 kts 91°
2026-04-29 07:26 28.56980 77.12354 1031 ft 182 kts 94°
2026-04-29 07:27 28.56910 77.13749 1677 ft 175 kts 93°
2026-04-29 07:27 28.56871 77.15112 2079 ft 173 kts 90°
2026-04-29 07:27 28.56849 77.16496 2399 ft 174 kts 91°
2026-04-29 07:27 28.56828 77.17909 2592 ft 183 kts 91°
2026-04-29 07:28 28.56801 77.19411 2781 ft 193 kts 92°
2026-04-29 07:28 28.56473 77.20925 2951 ft 203 kts 130°
2026-04-29 07:28 28.55273 77.21795 3140 ft 213 kts 174°
2026-04-29 07:28 28.53781 77.21478 3345 ft 226 kts 208°
2026-04-29 07:29 28.52360 77.20576 3570 ft 238 kts 207°
2026-04-29 07:29 28.50864 77.19680 3797 ft 251 kts 206°
2026-04-29 07:29 28.49279 77.18722 4022 ft 264 kts 215°
2026-04-29 07:29 28.48098 77.17102 4267 ft 276 kts 247°
2026-04-29 07:30 28.47499 77.15023 4748 ft 278 kts 254°
2026-04-29 07:30 28.46997 77.12910 5277 ft 278 kts 254°
2026-04-29 07:30 28.46455 77.10797 5814 ft 277 kts 253°
2026-04-29 07:31 28.45423 77.06588 6755 ft 279 kts 269°
2026-04-29 07:31 28.45593 77.04395 7224 ft 280 kts 279°
2026-04-29 07:31 28.45921 77.02211 7695 ft 282 kts 280°
2026-04-29 07:31 28.46238 77.00041 8164 ft 284 kts 279°
2026-04-29 07:32 28.46528 76.97834 8685 ft 283 kts 278°
2026-04-29 07:32 28.46797 76.95607 9179 ft 285 kts 278°
2026-04-29 07:32 28.47050 76.93388 9693 ft 286 kts 278°
2026-04-29 07:32 28.47299 76.91116 10100 ft 292 kts 277°
2026-04-29 07:33 28.47547 76.88808 10297 ft 304 kts 277°
2026-04-29 07:33 28.47804 76.86374 10509 ft 317 kts 277°
2026-04-29 07:33 28.48070 76.83835 10727 ft 329 kts 277°
2026-04-29 07:33 28.48344 76.81201 10934 ft 342 kts 277°
2026-04-29 07:34 28.48624 76.78487 11141 ft 354 kts 277°
2026-04-29 07:34 28.48918 76.75644 11355 ft 366 kts 277°
2026-04-29 07:34 28.49214 76.72772 11658 ft 374 kts 277°
2026-04-29 07:34 28.49516 76.69833 12149 ft 377 kts 277°
2026-04-29 07:35 28.49821 76.66857 12701 ft 378 kts 277°
2026-04-29 07:35 28.50123 76.63898 13205 ft 380 kts 277°
2026-04-29 07:35 28.50425 76.60921 13731 ft 382 kts 277°
2026-04-29 07:35 28.50730 76.57922 14252 ft 384 kts 277°
2026-04-29 07:36 28.51039 76.54878 14812 ft 385 kts 277°
2026-04-29 07:36 28.51341 76.51891 15355 ft 387 kts 277°
2026-04-29 07:36 28.51694 76.48856 15869 ft 388 kts 281°
2026-04-29 07:36 28.52315 76.45868 16354 ft 390 kts 287°
2026-04-29 07:37 28.53216 76.42942 16895 ft 391 kts 292°
2026-04-29 07:37 28.54300 76.40144 17438 ft 392 kts 294°
2026-04-29 07:37 28.55434 76.37325 17932 ft 394 kts 294°
2026-04-29 07:37 28.56582 76.34480 18351 ft 398 kts 294°
2026-04-29 07:38 28.57739 76.31610 18803 ft 400 kts 294°
2026-04-29 07:38 28.58898 76.28722 19287 ft 402 kts 294°
2026-04-29 07:38 28.60068 76.25803 19707 ft 406 kts 294°
2026-04-29 07:38 28.61233 76.22890 20102 ft 410 kts 294°
2026-04-29 07:39 28.62415 76.19933 20485 ft 413 kts 294°
2026-04-29 07:39 28.63605 76.16949 20885 ft 415 kts 294°
2026-04-29 07:39 28.64801 76.13951 21287 ft 418 kts 294°
2026-04-29 07:39 28.65997 76.10944 21652 ft 421 kts 294°
2026-04-29 07:40 28.67200 76.07921 22009 ft 424 kts 294°
2026-04-29 07:40 28.68415 76.04864 22356 ft 427 kts 294°
2026-04-29 07:40 28.69645 76.01764 22693 ft 430 kts 294°
2026-04-29 07:40 28.70874 75.98667 23088 ft 431 kts 294°
2026-04-29 07:41 28.72102 75.95571 23450 ft 434 kts 294°
2026-04-29 07:41 28.73344 75.92392 23769 ft 437 kts 291°
2026-04-29 07:41 28.74219 75.89088 24083 ft 440 kts 282°
2026-04-29 07:41 28.74601 75.85644 24411 ft 443 kts 273°
2026-04-29 07:42 28.74503 75.82148 24749 ft 445 kts 266°
2026-04-29 07:42 28.74208 75.78645 25069 ft 448 kts 265°
2026-04-29 07:42 28.73890 75.75104 25367 ft 450 kts 265°
2026-04-29 07:42 28.73570 75.71569 25645 ft 453 kts 265°
2026-04-29 07:43 28.73246 75.67973 25944 ft 455 kts 265°
2026-04-29 07:43 28.72927 75.64405 26238 ft 457 kts 265°
2026-04-29 07:43 28.72605 75.60809 26515 ft 458 kts 265°
2026-04-29 07:43 28.72284 75.57192 26807 ft 460 kts 265°
2026-04-29 07:44 28.71964 75.53597 27079 ft 462 kts 265°
2026-04-29 07:44 28.71638 75.49945 27349 ft 463 kts 266°
2026-04-29 07:44 28.71311 75.46286 27614 ft 465 kts 265°
2026-04-29 07:44 28.70985 75.42649 27928 ft 465 kts 266°
2026-04-29 07:45 28.70655 75.38993 28312 ft 464 kts 266°
2026-04-29 07:45 28.70328 75.35368 28707 ft 462 kts 266°
2026-04-29 07:45 28.69999 75.31731 29078 ft 461 kts 265°
2026-04-29 07:45 28.69671 75.28116 29422 ft 460 kts 265°
2026-04-29 07:46 28.69340 75.24487 29697 ft 459 kts 265°
2026-04-29 07:46 28.69010 75.20893 29993 ft 458 kts 266°
2026-04-29 07:46 28.68682 75.17326 30262 ft 457 kts 266°
2026-04-29 07:46 28.68355 75.13750 30533 ft 455 kts 266°
2026-04-29 07:47 28.68026 75.10195 30806 ft 454 kts 266°
2026-04-29 07:47 28.67696 75.06625 31087 ft 452 kts 266°
2026-04-29 07:47 28.67372 75.03120 31350 ft 450 kts 267°
2026-04-29 07:47 28.67046 74.99595 31618 ft 448 kts 267°
2026-04-29 07:48 28.66717 74.96057 31839 ft 446 kts 267°
2026-04-29 07:48 28.66390 74.92548 32065 ft 445 kts 267°
2026-04-29 07:48 28.66066 74.89092 32210 ft 446 kts 267°
2026-04-29 07:48 28.65737 74.85588 32361 ft 446 kts 268°
2026-04-29 07:49 28.65410 74.82107 32532 ft 445 kts 268°
2026-04-29 07:49 28.65081 74.78617 32739 ft 445 kts 268°
2026-04-29 07:49 28.64750 74.75114 32929 ft 444 kts 268°
2026-04-29 07:49 28.64419 74.71626 33129 ft 444 kts 268°
2026-04-29 07:50 28.64089 74.68144 33327 ft 443 kts 268°
2026-04-29 07:50 28.63759 74.64691 33492 ft 443 kts 268°
2026-04-29 07:50 28.63425 74.61207 33645 ft 444 kts 268°
2026-04-29 07:50 28.63091 74.57724 33672 ft 444 kts 268°
2026-04-29 07:51 28.62418 74.50737 33684 ft 444 kts 269°
2026-04-29 07:51 28.61742 74.43745 33673 ft 444 kts 269°
2026-04-29 07:52 28.61067 74.36784 33666 ft 444 kts 269°
2026-04-29 07:52 28.60386 74.29858 33667 ft 444 kts 268°
2026-04-29 07:53 28.59700 74.22894 33649 ft 444 kts 268°
2026-04-29 07:53 28.59011 74.15916 33662 ft 444 kts 268°
2026-04-29 07:54 28.58320 74.08968 33659 ft 443 kts 268°
2026-04-29 07:54 28.57620 74.01985 33661 ft 443 kts 268°
2026-04-29 07:55 28.56928 73.95068 33669 ft 442 kts 268°
2026-04-29 07:55 28.56227 73.88140 33667 ft 441 kts 268°
2026-04-29 07:56 28.55524 73.81237 33676 ft 441 kts 269°
2026-04-29 07:56 28.55093 73.74319 33679 ft 438 kts 272°
2026-04-29 07:57 28.54801 73.67437 33673 ft 437 kts 272°
2026-04-29 07:57 28.54509 73.60502 33672 ft 437 kts 272°
2026-04-29 07:58 28.54215 73.53633 33665 ft 437 kts 272°
2026-04-29 07:58 28.53915 73.46714 33667 ft 436 kts 272°
2026-04-29 07:59 28.53614 73.39874 33668 ft 435 kts 272°
2026-04-29 07:59 28.53310 73.33021 33669 ft 435 kts 272°
2026-04-29 08:00 28.53005 73.26180 33665 ft 434 kts 272°
2026-04-29 08:00 28.52693 73.19311 33659 ft 434 kts 272°
2026-04-29 08:01 28.52381 73.12477 33656 ft 434 kts 272°
2026-04-29 08:01 28.52064 73.05660 33656 ft 433 kts 272°
2026-04-29 08:02 28.51742 72.98817 33652 ft 434 kts 272°
2026-04-29 08:02 28.51421 72.91991 33650 ft 434 kts 272°
2026-04-29 08:03 28.51094 72.85155 33647 ft 432 kts 272°
2026-04-29 08:03 28.50765 72.78362 33648 ft 432 kts 272°
2026-04-29 08:04 28.50433 72.71560 33641 ft 431 kts 272°
2026-04-29 08:04 28.50095 72.64777 33643 ft 431 kts 272°
2026-04-29 08:05 28.49759 72.57954 33642 ft 431 kts 272°
2026-04-29 08:05 28.49418 72.51205 33641 ft 430 kts 272°
2026-04-29 08:06 28.49072 72.44430 33642 ft 430 kts 272°
2026-04-29 08:06 28.48740 72.37689 33647 ft 428 kts 274°
2026-04-29 08:07 28.49344 72.31024 33645 ft 421 kts 286°
2026-04-29 08:07 28.51251 72.24806 33645 ft 416 kts 297°
2026-04-29 08:08 28.54335 72.19240 33647 ft 416 kts 308°
2026-04-29 08:08 28.58380 72.14574 33648 ft 418 kts 315°
2026-04-29 08:09 28.62706 72.10167 33650 ft 418 kts 316°
2026-04-29 08:09 28.67052 72.05778 33649 ft 418 kts 316°
2026-04-29 08:10 28.71401 72.01389 33642 ft 418 kts 316°
2026-04-29 08:10 28.75754 71.96995 33640 ft 417 kts 316°
2026-04-29 08:11 28.80112 71.92595 33638 ft 418 kts 316°
2026-04-29 08:11 28.84458 71.88203 33635 ft 418 kts 316°
2026-04-29 08:12 28.88805 71.83803 33637 ft 418 kts 316°
2026-04-29 08:12 28.93176 71.79374 33641 ft 419 kts 316°
2026-04-29 08:13 28.97503 71.74983 33650 ft 419 kts 316°
2026-04-29 08:13 29.01865 71.70555 33661 ft 420 kts 316°
2026-04-29 08:14 29.06216 71.66131 33661 ft 419 kts 316°
2026-04-29 08:14 29.10582 71.61687 33657 ft 419 kts 316°
2026-04-29 08:15 29.14911 71.57274 33658 ft 419 kts 316°
2026-04-29 08:15 29.19275 71.52816 33655 ft 419 kts 316°
2026-04-29 08:16 29.23605 71.48389 33656 ft 419 kts 316°
2026-04-29 08:16 29.27940 71.43954 33653 ft 419 kts 316°
2026-04-29 08:17 29.32297 71.39520 33653 ft 418 kts 316°
2026-04-29 08:17 29.36660 71.35106 33656 ft 418 kts 316°
2026-04-29 08:18 29.40996 71.30708 33652 ft 419 kts 316°
2026-04-29 08:18 29.45356 71.26279 33645 ft 418 kts 315°
2026-04-29 08:19 29.49703 71.21856 33646 ft 418 kts 316°
2026-04-29 08:19 29.54075 71.17396 33649 ft 418 kts 315°
2026-04-29 08:20 29.58408 71.12972 33649 ft 418 kts 315°
2026-04-29 08:20 29.62736 71.08549 33656 ft 418 kts 315°
2026-04-29 08:21 29.67109 71.04077 33666 ft 419 kts 316°
2026-04-29 08:21 29.71577 70.99823 33663 ft 419 kts 317°
2026-04-29 08:22 29.76099 70.95592 33661 ft 419 kts 318°
2026-04-29 08:22 29.80646 70.91339 33664 ft 420 kts 318°
2026-04-29 08:23 29.85162 70.87105 33663 ft 420 kts 317°
2026-04-29 08:23 29.89686 70.82857 33666 ft 420 kts 318°
2026-04-29 08:24 29.94181 70.78631 33554 ft 419 kts 317°
2026-04-29 08:24 29.98698 70.74375 33646 ft 420 kts 317°
2026-04-29 08:25 30.03232 70.70100 33698 ft 420 kts 318°
2026-04-29 08:25 30.07757 70.65832 33712 ft 420 kts 317°
2026-04-29 08:26 30.12279 70.61553 33697 ft 420 kts 317°
2026-04-29 08:26 30.16807 70.57266 33710 ft 420 kts 317°
2026-04-29 08:27 30.21311 70.53001 33715 ft 421 kts 317°
2026-04-29 08:27 30.25871 70.48754 33717 ft 421 kts 318°
2026-04-29 08:28 30.30447 70.44549 33778 ft 422 kts 318°
2026-04-29 08:28 30.35039 70.40318 33814 ft 422 kts 318°
2026-04-29 08:29 30.39607 70.36089 33816 ft 422 kts 318°
2026-04-29 08:29 30.44224 70.31814 33843 ft 423 kts 318°
2026-04-29 08:30 30.51081 70.25451 33854 ft 421 kts 317°
2026-04-29 08:31 30.55647 70.21207 33870 ft 422 kts 318°
2026-04-29 08:31 30.60226 70.16946 33907 ft 422 kts 317°
2026-04-29 08:32 30.64800 70.12683 33929 ft 423 kts 317°
2026-04-29 08:32 30.69389 70.08402 33996 ft 424 kts 317°
2026-04-29 08:33 30.73979 70.04111 34012 ft 423 kts 317°
2026-04-29 08:33 30.78569 69.99820 34070 ft 423 kts 317°
2026-04-29 08:34 30.83164 69.95517 34292 ft 424 kts 317°
2026-04-29 08:34 30.85460 69.93364 34013 ft 423 kts 317°
2026-04-29 08:34 30.87739 69.91228 34068 ft 423 kts 317°
2026-04-29 08:35 30.92326 69.86925 34278 ft 424 kts 317°
2026-04-29 08:35 30.94601 69.84785 34166 ft 423 kts 317°
2026-04-29 08:35 30.96882 69.82638 34128 ft 423 kts 317°
2026-04-29 08:36 31.01445 69.78342 33930 ft 422 kts 317°
2026-04-29 08:36 31.06020 69.74028 34060 ft 423 kts 317°
2026-04-29 08:37 31.10628 69.69682 34128 ft 425 kts 317°
2026-04-29 08:37 31.15196 69.65362 34102 ft 424 kts 317°
2026-04-29 08:38 31.19797 69.61008 34085 ft 426 kts 317°
2026-04-29 08:38 31.24367 69.56673 34073 ft 425 kts 317°
2026-04-29 08:39 31.28963 69.52309 34068 ft 425 kts 317°
2026-04-29 08:39 31.31234 69.50125 34252 ft 425 kts 315°
2026-04-29 08:39 31.33447 69.47813 34141 ft 423 kts 314°
2026-04-29 08:40 31.37541 69.42906 34067 ft 421 kts 309°
2026-04-29 08:40 31.41258 69.37654 34052 ft 421 kts 307°
2026-04-29 08:41 31.44911 69.32278 34059 ft 421 kts 306°
2026-04-29 08:41 31.48547 69.26916 34075 ft 421 kts 306°
2026-04-29 08:42 31.52168 69.21564 34083 ft 421 kts 306°
2026-04-29 08:42 31.55813 69.16159 34110 ft 421 kts 306°
2026-04-29 08:43 31.59424 69.10803 34115 ft 421 kts 306°
2026-04-29 08:43 31.63068 69.05382 34131 ft 421 kts 306°
2026-04-29 08:44 31.66698 68.99989 34151 ft 421 kts 306°
2026-04-29 08:44 31.70430 68.94725 34153 ft 421 kts 307°
2026-04-29 08:45 31.74217 68.89467 34159 ft 421 kts 308°
2026-04-29 08:45 31.77996 68.84199 34155 ft 422 kts 307°
2026-04-29 08:46 31.81764 68.78921 34169 ft 422 kts 307°
2026-04-29 08:46 31.85519 68.73652 34162 ft 422 kts 307°
2026-04-29 08:47 31.89303 68.68333 34171 ft 423 kts 307°
2026-04-29 08:47 31.93067 68.63034 34180 ft 422 kts 307°
2026-04-29 08:48 31.96816 68.57748 34183 ft 423 kts 308°
2026-04-29 08:48 32.00579 68.52438 34204 ft 422 kts 307°
2026-04-29 08:49 32.04346 68.47105 34201 ft 422 kts 307°
2026-04-29 08:49 32.08096 68.41801 34230 ft 423 kts 307°
2026-04-29 08:50 32.11858 68.36459 34219 ft 423 kts 307°
2026-04-29 08:50 32.15618 68.31117 34243 ft 422 kts 307°
2026-04-29 08:51 32.19349 68.25813 34244 ft 422 kts 307°
2026-04-29 08:51 32.23114 68.20451 34235 ft 422 kts 307°
2026-04-29 08:52 32.26834 68.15141 34231 ft 421 kts 306°
2026-04-29 08:52 32.30581 68.09792 34233 ft 423 kts 307°
2026-04-29 08:53 32.34324 68.04436 34232 ft 422 kts 307°
2026-04-29 08:53 32.38042 67.99110 34241 ft 423 kts 307°
2026-04-29 08:54 32.41778 67.93748 34241 ft 424 kts 306°
2026-04-29 08:54 32.45513 67.88375 34240 ft 424 kts 307°
2026-04-29 08:55 32.49267 67.82970 34233 ft 423 kts 307°
2026-04-29 08:55 32.53127 67.77719 34240 ft 425 kts 308°
2026-04-29 08:56 32.57042 67.72495 34235 ft 425 kts 308°
2026-04-29 08:56 32.60972 67.67242 34243 ft 425 kts 309°
2026-04-29 08:57 32.64880 67.62006 34246 ft 427 kts 308°
2026-04-29 08:57 32.68797 67.56743 34252 ft 426 kts 308°
2026-04-29 08:58 32.72731 67.51450 34252 ft 427 kts 308°
2026-04-29 08:58 32.76658 67.46162 34274 ft 428 kts 309°
2026-04-29 08:59 32.80535 67.40773 34278 ft 427 kts 307°
2026-04-29 08:59 32.84324 67.35339 34288 ft 426 kts 307°
2026-04-29 09:00 32.88112 67.29909 34314 ft 425 kts 306°
2026-04-29 09:00 32.91880 67.24506 34326 ft 425 kts 307°
2026-04-29 09:01 32.95671 67.19070 34348 ft 425 kts 306°
2026-04-29 09:01 32.99434 67.13666 34388 ft 425 kts 307°
2026-04-29 09:02 33.03207 67.08242 34393 ft 425 kts 307°
2026-04-29 09:02 33.06972 67.02813 34397 ft 425 kts 306°
2026-04-29 09:03 33.10739 66.97387 34420 ft 425 kts 306°
2026-04-29 09:03 33.14521 66.91921 34415 ft 426 kts 306°
2026-04-29 09:04 33.18270 66.86489 34416 ft 425 kts 306°
2026-04-29 09:04 33.22043 66.81027 34418 ft 427 kts 306°
2026-04-29 09:05 33.25823 66.75542 34395 ft 427 kts 306°
2026-04-29 09:05 33.29596 66.70052 34393 ft 428 kts 306°
2026-04-29 09:06 33.33349 66.64592 34388 ft 427 kts 306°
2026-04-29 09:06 33.37117 66.59094 34372 ft 428 kts 306°
2026-04-29 09:07 33.40879 66.53598 34367 ft 428 kts 306°
2026-04-29 09:07 33.44651 66.48076 34352 ft 429 kts 306°
2026-04-29 09:08 33.48441 66.42524 34331 ft 430 kts 306°
2026-04-29 09:08 33.52197 66.37002 34304 ft 431 kts 306°
2026-04-29 09:09 33.55980 66.31424 34310 ft 431 kts 306°
2026-04-29 09:09 33.59762 66.25835 34293 ft 430 kts 305°
2026-04-29 09:10 33.63501 66.20304 34297 ft 429 kts 306°
2026-04-29 09:10 33.67254 66.14740 34310 ft 430 kts 306°
2026-04-29 09:11 33.71025 66.09140 34331 ft 429 kts 306°
2026-04-29 09:11 33.74771 66.03571 34331 ft 431 kts 306°
2026-04-29 09:12 33.78534 65.97974 34331 ft 431 kts 306°
2026-04-29 09:12 33.82291 65.92366 34331 ft 430 kts 306°
2026-04-29 09:13 33.86041 65.86763 34346 ft 430 kts 306°
2026-04-29 09:13 33.89802 65.81139 34343 ft 431 kts 306°
2026-04-29 09:14 33.93545 65.75530 34352 ft 431 kts 306°
2026-04-29 09:14 33.97297 65.69892 34360 ft 432 kts 306°
2026-04-29 09:15 34.01047 65.64254 34362 ft 433 kts 306°
2026-04-29 09:15 34.04832 65.58551 34369 ft 434 kts 306°
2026-04-29 09:16 34.08593 65.52885 34373 ft 433 kts 306°
2026-04-29 09:16 34.12340 65.47253 34370 ft 431 kts 306°
2026-04-29 09:17 34.16112 65.41576 34379 ft 434 kts 306°
2026-04-29 09:17 34.19885 65.35876 34369 ft 433 kts 306°
2026-04-29 09:18 34.23631 65.30208 34367 ft 433 kts 305°
2026-04-29 09:18 34.27378 65.24528 34360 ft 434 kts 305°
2026-04-29 09:19 34.31129 65.18833 34370 ft 433 kts 305°
2026-04-29 09:19 34.34883 65.13124 34362 ft 433 kts 305°
2026-04-29 09:20 34.38605 65.07456 34359 ft 432 kts 305°
2026-04-29 09:20 34.42353 65.01730 34353 ft 433 kts 305°
2026-04-29 09:21 34.46092 64.96017 34354 ft 434 kts 305°
2026-04-29 09:21 34.49840 64.90275 34354 ft 433 kts 305°
2026-04-29 09:22 34.53563 64.84570 34350 ft 434 kts 305°
2026-04-29 09:22 34.57304 64.78819 34354 ft 434 kts 305°
2026-04-29 09:23 34.61047 64.73058 34332 ft 434 kts 305°
2026-04-29 09:23 34.64786 64.67283 34326 ft 435 kts 305°
2026-04-29 09:24 34.68530 64.61498 34323 ft 436 kts 305°
2026-04-29 09:24 34.72247 64.55741 34318 ft 436 kts 305°
2026-04-29 09:25 34.75989 64.49935 34303 ft 436 kts 305°
2026-04-29 09:25 34.79724 64.44130 34289 ft 436 kts 305°
2026-04-29 09:26 34.83451 64.38329 34283 ft 436 kts 305°
2026-04-29 09:26 34.87187 64.32501 34260 ft 436 kts 304°
2026-04-29 09:27 34.90904 64.26695 34097 ft 435 kts 304°
2026-04-29 09:27 34.94620 64.20884 34176 ft 437 kts 304°
2026-04-29 09:28 34.98350 64.15041 34216 ft 437 kts 304°
2026-04-29 09:28 35.02091 64.09169 34191 ft 437 kts 304°
2026-04-29 09:29 35.05809 64.03323 34177 ft 437 kts 304°
2026-04-29 09:29 35.11377 63.94549 34149 ft 437 kts 304°
2026-04-29 09:30 35.15072 63.88711 34129 ft 436 kts 304°
2026-04-29 09:30 35.18789 63.82837 34128 ft 436 kts 304°
2026-04-29 09:31 35.22500 63.76953 34095 ft 437 kts 304°
2026-04-29 09:31 35.26189 63.71091 34074 ft 437 kts 304°
2026-04-29 09:32 35.29890 63.65206 34075 ft 437 kts 304°
2026-04-29 09:32 35.33597 63.59343 34078 ft 437 kts 304°
2026-04-29 09:33 35.37318 63.53456 34054 ft 437 kts 305°
2026-04-29 09:33 35.41011 63.47601 34045 ft 437 kts 304°
2026-04-29 09:34 35.44736 63.41673 34027 ft 437 kts 305°
2026-04-29 09:34 35.48422 63.35797 34039 ft 437 kts 304°
2026-04-29 09:35 35.52130 63.29877 34023 ft 437 kts 304°
2026-04-29 09:35 35.55828 63.23971 34018 ft 437 kts 305°
2026-04-29 09:36 35.59809 63.18333 33983 ft 438 kts 310°
2026-04-29 09:36 35.64159 63.13069 33987 ft 440 kts 312°
2026-04-29 09:37 35.68565 63.07851 33979 ft 441 kts 312°
2026-04-29 09:37 35.70404 63.05676 33967 ft 441 kts 312°